Theta_e
332 333 330 325 312 307 303 307 315 315 320 330 333 328 325 327 320 314 341 342 347 351 356 357 362 362 361 361 360 361 360 359 359 358 358 358 358 358 358 358 358 357 355 354 353 353 351 351 350
323 324 326 319 308 299 302 310 310 320 327 333 333 332 329 324 332 333 339 343 343 349 353 357 362 362 361 360 360 360 360 359 358 357 357 356 357 356 356 357 356 356 355 354 354 353 352 352 352
329 323 313 312 305 301 304 312 314 325 330 329 328 333 332 331 338 336 343 343 340 345 352 358 362 361 361 360 359 359 358 358 357 356 355 355 355 356 358 358 358 356 356 356 356 356 356 355 355
322 318 315 309 306 309 310 314 316 321 325 328 327 324 334 341 340 342 347 346 345 345 351 360 362 361 360 360 359 358 357 357 357 356 356 356 356 357 357 357 358 358 356 357 358 360 360 359 358
320 311 307 305 308 312 315 314 317 321 322 324 327 323 327 337 343 344 350 354 349 346 350 354 360 360 360 360 359 358 358 358 358 359 359 359 358 357 357 357 357 356 356 356 356 359 359 359 359
307 310 306 304 307 313 312 314 320 320 324 326 325 325 327 339 342 343 346 349 349 345 346 349 357 358 358 358 358 357 356 357 357 358 358 358 357 358 359 358 358 358 357 357 356 357 357 357 357
304 305 305 307 309 309 311 312 313 320 322 324 329 323 329 336 340 341 340 346 347 346 344 346 350 355 358 357 356 356 356 356 356 356 356 357 357 357 358 358 357 357 357 358 358 357 357 356 356
310 309 309 311 305 306 310 311 313 319 320 332 334 324 323 332 340 339 337 340 345 346 345 343 345 350 351 352 358 357 357 357 356 357 357 357 358 357 357 353 355 356 357 357 357 357 357 356 355
314 308 306 309 309 309 311 310 315 322 323 325 329 331 335 338 338 332 330 333 336 345 346 348 347 348 349 349 352 357 359 358 358 358 358 356 349 349 349 349 355 357 357 357 355 355 354 354 353
309 306 308 314 316 309 312 311 313 316 321 325 328 334 337 337 332 330 335 331 332 337 342 345 344 348 349 352 346 350 351 351 350 347 337 336 333 337 337 352 358 355 352 350 353 354 355 352 347
308 302 308 312 312 314 313 312 314 313 313 321 323 329 332 332 332 332 333 331 333 337 341 337 331 335 334 331 333 332 338 341 335 332 331 328 330 331 329 330 331 336 343 341 343 334 336 337 341
301 306 308 308 310 311 314 316 315 314 314 324 328 331 331 331 331 329 332 333 334 335 336 330 332 333 332 332 329 329 328 326 330 330 329 329 327 330 326 327 325 324 322 323 324 323 326 327 331
304 306 308 310 307 308 317 316 316 315 320 322 328 330 330 327 329 331 333 333 332 325 328 331 332 333 333 330 328 331 324 328 329 330 328 329 324 327 325 322 323 322 322 319 318 320 321 324 326
306 306 305 308 306 308 309 314 316 316 320 323 326 327 327 326 327 328 331 328 327 327 328 330 331 333 332 330 330 328 329 326 326 326 328 328 325 327 325 320 320 321 322 320 318 317 320 320 319
307 300 305 306 307 308 312 307 310 319 320 319 323 324 326 330 326 328 330 329 328 329 331 330 330 330 330 328 330 328 326 330 325 325 328 328 325 324 325 321 322 321 320 321 318 318 318 317 317
302 301 295 303 310 312 309 301 310 316 318 317 318 324 327 326 326 331 333 330 332 332 330 327 334 329 331 327 328 327 325 327 325 327 328 327 326 325 325 321 320 325 321 318 317 319 317 315 314
300 296 301 305 309 311 307 302 312 315 318 315 316 323 324 321 324 327 330 326 331 330 328 327 327 328 329 328 329 328 326 328 328 324 324 325 327 327 325 324 324 325 322 320 319 320 317 314 312
297 299 300 301 304 305 300 301 306 312 316 317 315 319 321 321 323 328 328 326 331 331 330 327 328 331 329 329 332 332 330 327 326 325 325 326 326 328 323 322 322 323 319 319 319 319 318 316 313
303 302 301 305 307 304 301 302 305 308 311 308 309 319 321 321 324 325 326 324 326 329 328 326 328 327 329 329 329 327 326 325 323 321 323 323 322 324 321 321 318 318 316 317 317 317 312 313 314
305 302 301 305 307 303 301 301 306 308 308 310 311 318 320 319 319 321 322 322 325 330 330 332 333 333 330 327 326 324 319 318 317 316 317 320 319 320 318 317 318 316 315 313 314 313 312 312 313
303 301 301 300 303 303 301 298 301 309 312 314 314 319 320 318 319 322 322 320 328 328 330 330 331 328 323 323 320 318 316 316 314 313 313 316 318 317 315 315 314 314 312 312 312 313 310 308 311
299 306 305 303 299 292 300 289 302 304 307 310 311 312 314 323 325 323 322 322 324 326 331 330 325 323 322 319 318 316 314 310 312 312 312 314 315 315 317 315 314 313 314 313 312 313 313 313 307
303 308 305 305 299 295 299 292 298 304 302 305 307 311 312 321 320 321 321 323 324 325 324 323 320 319 320 319 318 315 312 314 313 312 312 311 312 312 314 315 313 314 314 313 312 312 308 307 306
310 306 303 301 297 290 297 296 297 299 301 305 309 310 312 319 318 318 320 323 322 320 317 319 317 318 318 317 317 314 312 311 311 310 309 308 309 309 310 311 314 313 310 309 309 310 309 307 307
304 298 290 291 290 291 299 297 295 303 305 307 306 308 309 318 319 319 319 317 314 313 313 315 314 313 315 314 314 312 313 310 309 309 307 306 306 307 307 309 310 312 312 311 310 309 310 310 307
301 298 292 285 286 289 298 296 299 306 308 309 309 308 309 310 310 312 314 311 312 313 312 312 311 312 311 312 312 314 311 310 309 308 308 307 307 310 308 309 313 314 311 309 310 308 308 309 309
302 297 300 293 295 291 296 300 304 306 305 308 309 308 306 306 310 311 311 311 311 312 310 311 310 309 310 311 313 312 311 310 308 308 308 308 310 311 311 311 309 308 307 309 308 306 306 306 308
304 306 295 294 287 285 292 296 297 303 305 307 305 305 308 309 310 310 310 311 310 310 310 309 308 308 308 311 311 311 309 309 309 310 310 310 309 310 310 309 309 308 308 307 307 305 306 307 307
304 299 298 298 295 288 288 293 303 301 304 304 304 306 306 306 306 307 308 310 309 308 308 308 307 307 308 311 310 308 308 310 311 307 307 308 308 309 309 307 307 306 306 307 306 305 305 305 305
305 300 299 291 291 294 292 292 305 305 307 307 307 307 305 306 308 308 307 309 309 308 307 307 307 307 309 310 309 308 309 308 308 308 308 308 308 309 309 308 307 306 307 307 306 305 306 305 305
Wind_Speed
6 6 3 2 6 5 4 7 7 11 11 16 13 15 14 9 7 4 7 12 16 13 9 12 13 13 12 11 10 9 8 7 7 6 6 5 5 5 5 4 4 4 4 4 4 4 3 3 4
4 5 1 2 4 3 4 7 7 15 15 20 18 16 16 15 10 6 10 13 15 14 10 9 13 12 11 9 9 8 7 7 6 5 4 3 3 2 2 3 3 4 4 4 4 4 3 4 4
3 3 4 4 3 1 5 10 9 18 19 18 12 15 6 9 6 4 11 17 15 10 9 12 13 11 10 9 8 7 6 5 4 3 2 2 2 2 3 4 4 5 5 6 6 7 7 7 7
2 4 4 6 13 9 5 11 12 17 16 18 18 10 15 10 8 7 17 22 16 10 7 11 14 12 10 9 7 6 5 3 2 0 0 1 2 4 5 5 5 6 7 8 8 8 8 8 9
2 1 7 4 7 14 24 7 16 18 17 18 14 11 6 8 7 9 19 17 17 11 9 8 13 12 10 8 6 5 4 3 3 2 2 3 4 4 6 6 6 7 8 9 10 9 9 9 9
3 4 6 3 10 13 5 9 20 18 19 17 17 13 6 9 7 6 12 15 15 15 11 9 14 12 10 9 8 6 5 4 4 4 4 6 5 7 8 8 9 10 11 11 11 10 10 10 9
4 5 4 5 13 9 4 9 9 18 13 10 16 9 8 9 8 7 10 16 15 14 12 8 7 10 11 10 9 8 8 7 7 5 6 7 7 9 9 11 12 11 12 12 11 12 12 12 11
3 7 5 4 5 8 4 10 13 10 4 19 18 7 7 6 10 7 6 11 12 12 11 8 7 6 6 6 10 10 9 9 8 5 7 8 10 10 11 10 11 10 13 12 13 13 13 13 13
9 4 6 5 10 11 5 12 7 8 12 6 5 16 13 12 10 7 4 5 9 10 7 9 10 9 8 7 8 9 10 8 5 5 8 7 4 6 6 10 11 10 10 11 11 14 13 14 12
6 7 11 16 15 3 10 13 10 11 16 18 15 14 16 14 11 8 3 4 8 7 5 9 5 7 7 7 5 5 5 2 4 4 4 2 4 4 8 6 2 7 9 9 10 14 12 10 3
9 2 9 8 6 6 11 9 8 12 9 19 19 14 13 15 12 21 14 4 7 7 6 8 7 5 5 5 4 1 2 3 3 7 6 5 4 4 4 3 3 4 6 3 5 4 4 5 1
5 5 7 6 7 4 6 6 6 9 7 16 21 18 13 11 17 22 16 8 9 6 5 7 8 7 7 4 4 4 4 3 4 4 6 4 3 4 4 4 5 5 3 3 2 3 3 6 6
2 5 5 9 3 7 12 9 9 8 7 8 17 18 16 11 15 14 11 7 8 10 7 7 7 6 5 6 4 4 4 3 4 2 4 4 3 2 1 2 3 4 4 4 5 5 7 7 7
4 6 3 6 4 2 6 4 6 4 4 13 15 17 12 18 31 30 27 20 9 6 8 6 5 3 5 4 4 2 3 3 4 2 2 4 4 4 3 0 2 2 2 4 4 4 5 3 4
5 3 7 5 4 4 6 4 6 14 9 10 14 11 22 22 20 16 5 22 9 5 6 6 7 6 7 4 3 3 3 3 3 3 4 3 3 2 3 2 2 1 2 4 4 4 4 4 4
4 6 4 8 8 5 9 7 7 9 10 7 8 23 25 20 20 19 18 12 4 7 9 3 4 5 7 4 4 3 4 3 4 4 4 5 2 4 3 1 1 2 3 3 3 2 2 1 1
6 7 7 4 9 8 5 4 7 10 10 8 7 21 19 17 12 17 17 11 13 10 10 6 7 6 6 4 3 4 5 4 3 3 4 5 5 6 4 4 4 4 4 4 4 3 2 3 4
5 9 6 3 3 5 2 4 7 7 7 10 6 21 20 16 17 14 8 8 8 9 10 8 6 7 4 1 3 4 4 3 4 5 5 8 6 6 5 4 5 5 4 4 3 3 3 3 5
8 8 8 6 9 5 2 1 5 6 3 10 9 20 14 11 8 11 12 4 6 8 9 9 7 4 2 2 3 3 4 4 5 7 6 7 7 6 6 3 4 3 3 4 6 5 5 4 4
7 9 9 7 8 8 9 10 9 6 6 9 10 19 17 14 15 12 4 4 9 7 9 12 9 6 5 3 3 3 2 2 1 3 5 6 6 7 9 6 5 4 4 5 4 3 2 2 4
8 8 8 6 9 9 5 11 1 5 9 9 9 19 16 21 16 9 5 6 5 8 10 8 6 6 5 6 4 2 3 3 3 4 3 5 6 6 6 7 6 6 3 2 1 2 3 2 3
4 6 7 8 5 5 1 4 4 5 6 7 6 7 8 18 9 7 11 8 9 7 8 9 8 8 6 5 2 3 3 2 3 1 1 3 6 6 5 4 4 3 2 3 2 2 2 1 3
3 6 7 7 6 1 12 5 4 7 7 6 8 8 8 15 13 5 7 7 7 10 8 8 8 6 5 5 5 3 1 2 1 2 4 4 4 6 7 6 3 1 2 2 3 4 4 2 2
5 6 10 8 3 2 11 6 3 3 5 5 6 6 6 15 9 9 7 5 2 6 8 8 8 5 6 4 1 3 0 3 3 3 3 3 3 4 5 8 5 4 3 3 3 3 4 3 3
10 8 6 8 7 4 6 6 5 7 9 9 7 7 9 15 13 9 7 5 7 8 8 7 7 3 4 6 4 3 5 5 4 2 2 4 3 3 5 6 6 3 3 4 4 4 5 5 4
4 6 5 2 2 7 10 5 3 8 8 7 8 6 6 5 8 9 10 9 9 8 8 5 6 6 5 4 4 6 5 2 2 2 3 3 4 3 5 6 5 3 3 3 3 3 4 5 5
6 5 4 1 5 3 1 4 1 6 4 7 8 7 6 4 7 8 8 8 8 7 5 9 8 5 5 4 5 4 4 3 3 4 3 3 4 6 6 5 5 3 3 4 5 4 6 5 6
4 3 5 3 1 5 7 3 3 4 5 8 9 9 8 8 9 8 7 7 6 8 8 8 7 5 3 5 4 3 1 3 5 5 5 7 7 6 6 5 3 5 7 7 5 5 5 5 5
3 2 3 3 4 4 4 3 5 5 6 8 6 6 7 6 4 4 7 7 8 7 8 7 7 7 6 5 3 5 5 5 4 3 2 6 9 8 5 5 5 8 8 6 5 5 6 6 6
4 1 4 7 6 1 4 8 3 9 7 8 6 6 5 4 1 3 8 8 8 8 7 7 6 7 6 6 5 6 6 5 5 6 7 8 8 6 6 8 8 9 8 7 7 7 6 6 7
Wind_Direction
265 234 196 257 47 55 257 69 111 109 72 97 79 93 75 147 170 182 157 149 123 119 132 121 123 121 122 124 120 115 108 100 93 93 86 74 66 58 53 44 42 42 45 41 36 31 30 34 21
293 306 45 45 74 14 283 106 60 104 112 106 96 100 87 80 89 106 106 143 130 141 136 129 125 123 122 120 119 115 114 115 113 101 88 71 61 51 40 16 10 3 358 352 343 334 330 328 331
283 232 72 65 355 307 278 112 110 115 118 110 78 47 84 117 103 103 141 140 135 136 133 137 128 122 119 119 117 118 116 111 106 107 99 68 8 351 352 342 335 331 328 324 318 314 314 313 312
234 17 346 100 282 289 284 119 105 99 99 109 119 69 54 88 118 153 109 124 113 114 116 132 132 132 132 131 132 127 129 136 145 132 315 334 318 320 326 320 318 314 310 306 303 304 302 296 297
162 50 37 83 331 271 274 131 100 103 98 98 106 107 92 78 68 80 129 122 121 128 135 138 135 137 144 142 135 150 165 187 214 253 288 298 293 293 280 269 273 277 279 279 283 287 290 293 295
323 83 118 322 255 256 61 106 105 110 110 113 105 121 121 140 140 137 132 130 137 147 148 155 150 152 153 155 166 181 201 228 252 255 279 270 274 269 271 279 275 267 264 266 270 272 275 277 278
228 106 357 153 243 325 95 94 101 109 125 106 137 121 156 146 152 133 144 140 145 139 150 150 151 154 160 171 182 191 203 215 235 244 257 270 274 265 263 253 252 258 268 263 264 267 272 273 272
351 86 113 256 249 273 51 79 103 132 168 135 140 141 150 155 145 141 139 142 133 140 149 157 143 156 161 183 196 204 208 218 227 239 265 269 267 277 268 267 259 261 262 264 262 263 263 263 265
292 69 161 212 235 249 199 102 126 105 134 93 93 124 134 138 130 128 122 108 112 129 160 148 163 174 178 188 201 205 220 225 243 257 253 273 279 286 250 287 288 263 275 263 295 281 275 268 270
264 159 183 197 206 258 142 136 154 117 106 106 107 127 145 146 143 109 106 221 102 112 78 87 119 153 175 191 184 186 208 162 217 219 118 79 31 6 40 2 12 279 283 291 308 306 299 308 310
275 79 70 152 161 167 137 155 154 119 128 140 141 151 159 148 113 77 298 191 122 116 100 86 89 94 119 85 111 106 140 142 178 86 80 62 46 21 14 18 341 313 311 327 345 355 29 9 71
30 347 96 73 31 34 172 101 99 128 191 157 149 152 162 171 118 144 201 111 111 105 105 90 77 70 49 64 74 76 72 78 95 101 93 84 67 46 16 7 347 345 349 23 0 356 4 351 342
74 310 81 97 43 294 99 144 153 181 190 169 157 157 175 124 147 124 11 132 113 103 98 94 92 76 71 59 47 45 67 50 92 105 141 126 115 126 84 5 344 358 347 10 4 5 357 5 6
357 23 57 126 228 102 62 138 97 293 242 149 163 176 131 74 54 1 356 320 84 113 122 123 112 116 94 59 42 57 48 52 33 59 273 161 158 169 151 209 314 351 351 349 357 14 41 17 11
350 317 283 227 192 56 93 323 152 196 189 165 175 163 118 103 104 125 85 300 131 130 113 148 141 119 107 87 32 36 15 48 5 312 305 293 189 116 177 211 278 261 350 355 343 5 36 24 359
244 326 281 236 141 173 101 269 331 125 149 166 221 120 120 117 139 148 137 263 258 123 109 47 119 99 79 47 24 353 338 326 302 327 336 359 148 192 160 182 292 341 0 338 329 20 335 317 292
308 244 251 113 169 145 135 226 207 185 170 185 206 125 126 131 146 171 174 183 194 156 142 120 98 81 68 24 338 308 303 338 353 348 353 342 358 14 33 30 10 8 23 27 8 350 325 299 305
328 0 15 112 169 134 156 3 328 238 169 194 204 111 137 151 157 165 188 198 173 154 131 138 125 119 139 234 307 343 3 354 359 354 13 33 24 26 32 19 3 12 13 357 354 3 320 289 291
359 3 345 26 24 21 23 47 304 288 168 55 48 109 118 143 163 191 181 187 256 143 133 148 130 190 120 44 35 17 357 355 3 21 25 47 27 13 9 7 340 355 0 330 324 329 326 309 303
15 33 349 354 12 31 337 310 263 67 92 80 60 130 137 156 181 198 227 219 237 156 79 75 47 43 68 74 52 60 338 337 36 3 19 36 24 13 347 333 318 306 293 303 296 339 312 301 341
55 36 357 345 334 341 351 324 284 81 80 69 53 135 146 163 180 206 201 231 98 98 113 125 128 115 92 84 64 6 5 1 11 347 356 350 5 342 309 288 286 300 313 309 77 33 51 305 306
74 33 339 323 358 290 20 271 32 105 102 93 84 96 119 163 186 168 151 117 123 143 149 151 146 136 127 122 121 185 202 228 239 248 325 346 333 331 5 64 82 67 18 14 335 314 297 293 299
308 336 294 276 276 249 291 98 260 82 59 74 66 65 47 145 143 128 110 126 140 154 156 156 121 116 135 169 177 179 235 246 266 350 357 333 341 346 331 316 334 327 271 294 331 331 334 312 291
318 351 322 292 146 20 256 122 307 85 105 67 63 73 72 107 109 148 171 189 114 97 97 108 119 128 159 160 125 63 41 333 19 338 344 326 309 296 309 308 303 298 9 349 323 304 307 293 291
25 40 344 360 7 231 336 9 199 78 66 79 72 49 49 142 136 149 141 135 120 98 102 121 125 147 93 67 58 8 50 51 22 360 308 312 292 294 301 304 317 328 40 28 16 345 313 294 273
339 99 127 313 318 272 310 107 193 129 125 136 138 111 67 91 125 134 155 136 133 128 119 126 80 84 62 55 18 91 83 59 333 297 293 289 285 282 287 300 319 355 13 346 319 297 278 280 285
327 29 206 105 277 20 177 46 2 144 139 76 62 46 7 319 87 90 136 121 115 118 93 79 77 67 57 24 66 63 51 24 302 310 312 290 309 317 314 305 308 323 293 272 269 267 273 272 272
104 258 16 350 331 330 332 114 167 66 76 67 45 31 29 43 42 37 64 95 90 74 91 80 79 75 37 51 62 75 28 350 11 14 -0 333 319 318 311 303 316 298 298 292 280 272 281 278 285
315 332 354 123 118 168 328 289 180 141 135 115 107 100 91 69 57 67 82 95 93 90 82 75 55 38 22 36 36 29 352 44 38 326 325 317 304 297 292 272 275 296 290 274 266 262 272 273 282
34 302 111 111 296 143 165 275 189 113 102 132 117 102 131 135 224 4 90 86 81 76 66 57 39 32 37 31 26 17 29 18 351 328 321 311 297 295 293 289 285 290 280 269 261 262 277 282 284